FWZ33 ELLX-LFPG

Flight info

Callsign FWZ33
Flight time 0h 44m
Altitude 19000
Route RAPOR Z157 VEDUS
Aircraft A343/H-SDE2E3FGHIJ4J5M1RWXY/LB1D1

Departure

Time 2026-05-05 13:54
Airport Luxembourg-Findel International Airport (ELLX)

Arrival

Time 2026-05-05 14:39
Airport Charles de Gaulle International Airport (LFPG)
Time Latitude Longitude Altitude Speed Heading
2026-05-05 13:15 49.63223 6.21581 1200 ft 0 kts 58°
2026-05-05 13:20 49.63617 6.22905 1201 ft 0 kts 84°
2026-05-05 13:44 49.63616 6.22896 1201 ft 3 kts 84°
2026-05-05 13:44 49.63614 6.22867 1200 ft 3 kts 84°
2026-05-05 13:44 49.63612 6.22838 1200 ft 3 kts 84°
2026-05-05 13:44 49.63610 6.22809 1200 ft 3 kts 84°
2026-05-05 13:45 49.63608 6.22780 1200 ft 3 kts 83°
2026-05-05 13:45 49.63608 6.22749 1200 ft 3 kts 121°
2026-05-05 13:45 49.63621 6.22727 1200 ft 3 kts 167°
2026-05-05 13:45 49.63641 6.22727 1200 ft 3 kts 184°
2026-05-05 13:46 49.63659 6.22723 1200 ft 3 kts 150°
2026-05-05 13:46 49.63675 6.22710 1200 ft 3 kts 151°
2026-05-05 13:46 49.63690 6.22697 1200 ft 3 kts 151°
2026-05-05 13:46 49.63705 6.22684 1200 ft 3 kts 151°
2026-05-05 13:47 49.63721 6.22670 1199 ft 3 kts 151°
2026-05-05 13:47 49.63736 6.22657 1199 ft 3 kts 151°
2026-05-05 13:47 49.63752 6.22644 1199 ft 3 kts 151°
2026-05-05 13:47 49.63764 6.22633 1199 ft 0 kts 150°
2026-05-05 13:49 49.63763 6.22634 1199 ft 1 kts 150°
2026-05-05 13:49 49.63735 6.22658 1199 ft 8 kts 151°
2026-05-05 13:49 49.63674 6.22709 1200 ft 12 kts 152°
2026-05-05 13:49 49.63593 6.22776 1200 ft 14 kts 152°
2026-05-05 13:50 49.63527 6.22875 1202 ft 11 kts 120°
2026-05-05 13:50 49.63532 6.22970 1203 ft 8 kts 74°
2026-05-05 13:50 49.63556 6.23053 1204 ft 9 kts 65°
2026-05-05 13:50 49.63583 6.23145 1204 ft 10 kts 65°
2026-05-05 13:51 49.63616 6.23243 1205 ft 11 kts 61°
2026-05-05 13:51 49.63653 6.23350 1205 ft 12 kts 65°
2026-05-05 13:51 49.63644 6.23428 1208 ft 4 kts 128°
2026-05-05 13:51 49.63617 6.23469 1215 ft 9 kts 140°
2026-05-05 13:52 49.63587 6.23499 1226 ft 6 kts 152°
2026-05-05 13:52 49.63518 6.23493 1251 ft 11 kts 220°
2026-05-05 13:52 49.63493 6.23441 1239 ft 0 kts 240°
2026-05-05 13:53 49.63481 6.23408 1233 ft 17 kts 240°
2026-05-05 13:53 49.63311 6.22953 1227 ft 83 kts 240°
2026-05-05 13:54 49.62936 6.21945 1223 ft 137 kts 240°
2026-05-05 13:54 49.62388 6.20479 1348 ft 172 kts 240°
2026-05-05 13:54 49.61771 6.18834 1828 ft 183 kts 238°
2026-05-05 13:54 49.61129 6.17126 2525 ft 192 kts 239°
2026-05-05 13:55 49.60415 6.15211 2861 ft 224 kts 239°
2026-05-05 13:55 49.59595 6.13004 3450 ft 244 kts 240°
2026-05-05 13:55 49.58715 6.10631 3820 ft 273 kts 239°
2026-05-05 13:55 49.57751 6.08036 3850 ft 276 kts 239°
2026-05-05 13:56 49.57075 6.05377 3854 ft 261 kts 263°
2026-05-05 13:56 49.57379 6.02663 3867 ft 262 kts 290°
2026-05-05 13:56 49.58099 6.00075 3850 ft 266 kts 291°
2026-05-05 13:56 49.58812 5.97419 3849 ft 266 kts 289°
2026-05-05 13:57 49.59466 5.94749 3847 ft 266 kts 288°
2026-05-05 13:57 49.60080 5.92088 3844 ft 264 kts 287°
2026-05-05 13:57 49.60586 5.89382 3828 ft 260 kts 274°
2026-05-05 13:57 49.60655 5.86613 3840 ft 258 kts 268°
2026-05-05 13:58 49.60671 5.83847 3844 ft 258 kts 269°
2026-05-05 13:58 49.60689 5.81070 3836 ft 261 kts 269°
2026-05-05 13:58 49.60709 5.78294 3838 ft 262 kts 269°
2026-05-05 13:58 49.60727 5.75498 3821 ft 261 kts 269°
2026-05-05 13:59 49.60766 5.69892 3822 ft 261 kts 269°
2026-05-05 13:59 49.60783 5.67085 3821 ft 262 kts 269°
2026-05-05 14:00 49.60817 5.61491 4308 ft 262 kts 268°
2026-05-05 14:00 49.60831 5.58643 5150 ft 266 kts 268°
2026-05-05 14:00 49.60808 5.55799 6297 ft 268 kts 264°
2026-05-05 14:00 49.60665 5.52918 7136 ft 270 kts 262°
2026-05-05 14:01 49.60505 5.50007 7637 ft 274 kts 263°
2026-05-05 14:01 49.60357 5.47070 7802 ft 276 kts 263°
2026-05-05 14:01 49.60215 5.44114 7819 ft 277 kts 263°
2026-05-05 14:01 49.60079 5.41159 7824 ft 277 kts 263°
2026-05-05 14:02 49.59946 5.38222 7821 ft 277 kts 263°
2026-05-05 14:02 49.59811 5.35381 7815 ft 279 kts 263°
2026-05-05 14:02 49.59668 5.32386 7818 ft 280 kts 263°
2026-05-05 14:02 49.59526 5.29417 7818 ft 280 kts 263°
2026-05-05 14:03 49.59386 5.26455 7820 ft 280 kts 263°
2026-05-05 14:03 49.59243 5.23456 7818 ft 280 kts 263°
2026-05-05 14:03 49.59151 5.20496 7814 ft 281 kts 267°
2026-05-05 14:03 49.59167 5.17492 7808 ft 281 kts 269°
2026-05-05 14:04 49.59199 5.14481 7818 ft 281 kts 268°
2026-05-05 14:04 49.59230 5.11444 7816 ft 281 kts 268°
2026-05-05 14:04 49.59257 5.08424 7815 ft 281 kts 268°
2026-05-05 14:04 49.59283 5.05409 7815 ft 281 kts 268°
2026-05-05 14:05 49.59307 5.02408 7813 ft 281 kts 268°
2026-05-05 14:05 49.59331 4.99395 7813 ft 281 kts 268°
2026-05-05 14:05 49.59354 4.96395 7812 ft 281 kts 268°
2026-05-05 14:05 49.59378 4.93386 7818 ft 282 kts 269°
2026-05-05 14:06 49.59398 4.90342 7816 ft 285 kts 269°
2026-05-05 14:06 49.59418 4.87271 7811 ft 287 kts 269°
2026-05-05 14:06 49.59437 4.84186 7814 ft 288 kts 269°
2026-05-05 14:06 49.59456 4.81122 7811 ft 287 kts 269°
2026-05-05 14:07 49.59475 4.78069 7810 ft 287 kts 269°
2026-05-05 14:07 49.59497 4.74987 7804 ft 287 kts 269°
2026-05-05 14:07 49.59512 4.71874 7810 ft 287 kts 269°
2026-05-05 14:07 49.59526 4.68847 7809 ft 287 kts 269°
2026-05-05 14:08 49.59540 4.65760 7813 ft 287 kts 269°
2026-05-05 14:08 49.59553 4.62688 7813 ft 287 kts 269°
2026-05-05 14:08 49.59566 4.59609 7815 ft 287 kts 269°
2026-05-05 14:08 49.59578 4.56528 7817 ft 288 kts 269°
2026-05-05 14:09 49.59590 4.53440 7814 ft 288 kts 269°
2026-05-05 14:09 49.59602 4.50361 7813 ft 288 kts 269°
2026-05-05 14:09 49.59611 4.47274 7810 ft 288 kts 269°
2026-05-05 14:09 49.59620 4.44177 7815 ft 290 kts 270°
2026-05-05 14:10 49.59629 4.41050 7814 ft 293 kts 270°
2026-05-05 14:10 49.59637 4.37902 7809 ft 294 kts 270°
2026-05-05 14:10 49.59644 4.34759 7811 ft 293 kts 270°
2026-05-05 14:10 49.59650 4.31621 7811 ft 293 kts 270°
2026-05-05 14:11 49.59655 4.28478 7812 ft 294 kts 270°
2026-05-05 14:11 49.59659 4.25368 7806 ft 292 kts 270°
2026-05-05 14:11 49.59664 4.22234 7810 ft 293 kts 269°
2026-05-05 14:11 49.59667 4.19100 7811 ft 293 kts 270°
2026-05-05 14:12 49.59669 4.15966 7802 ft 292 kts 269°
2026-05-05 14:12 49.59671 4.12845 7806 ft 292 kts 270°
2026-05-05 14:12 49.59671 4.09711 7813 ft 292 kts 270°
2026-05-05 14:12 49.59594 4.06581 7804 ft 293 kts 257°
2026-05-05 14:13 49.58760 4.03752 7819 ft 289 kts 234°
2026-05-05 14:13 49.57603 4.01222 7812 ft 290 kts 232°
2026-05-05 14:13 49.56432 3.98687 7808 ft 289 kts 233°
2026-05-05 14:13 49.55294 3.96133 7817 ft 291 kts 233°
2026-05-05 14:14 49.54169 3.93540 7818 ft 291 kts 234°
2026-05-05 14:14 49.53052 3.90934 7813 ft 291 kts 235°
2026-05-05 14:14 49.51941 3.88327 7804 ft 290 kts 235°
2026-05-05 14:14 49.50841 3.85743 7808 ft 290 kts 236°
2026-05-05 14:15 49.49736 3.83141 7813 ft 289 kts 235°
2026-05-05 14:15 49.48641 3.80556 7806 ft 290 kts 235°
2026-05-05 14:15 49.47564 3.77943 7804 ft 292 kts 241°
2026-05-05 14:15 49.46932 3.74982 7813 ft 292 kts 255°
2026-05-05 14:16 49.46443 3.71957 7811 ft 292 kts 255°
2026-05-05 14:16 49.45950 3.68902 7806 ft 290 kts 255°
2026-05-05 14:16 49.45456 3.65900 7806 ft 289 kts 255°
2026-05-05 14:16 49.44962 3.62939 7806 ft 289 kts 254°
2026-05-05 14:17 49.44461 3.59953 7808 ft 289 kts 254°
2026-05-05 14:17 49.43956 3.56968 7809 ft 289 kts 254°
2026-05-05 14:17 49.43445 3.53958 7811 ft 292 kts 255°
2026-05-05 14:17 49.42931 3.50938 7810 ft 293 kts 255°
2026-05-05 14:18 49.42414 3.47905 7810 ft 294 kts 255°
2026-05-05 14:18 49.41841 3.44892 7806 ft 295 kts 248°
2026-05-05 14:18 49.40995 3.42007 7813 ft 295 kts 243°
2026-05-05 14:18 49.40091 3.39192 7809 ft 295 kts 243°
2026-05-05 14:19 49.39181 3.36370 7814 ft 294 kts 243°
2026-05-05 14:19 49.38278 3.33552 7811 ft 294 kts 243°
2026-05-05 14:19 49.37373 3.30721 7810 ft 294 kts 243°
2026-05-05 14:19 49.36470 3.27895 7812 ft 296 kts 243°
2026-05-05 14:20 49.35572 3.25082 7811 ft 296 kts 243°
2026-05-05 14:20 49.34665 3.22243 7808 ft 294 kts 243°
2026-05-05 14:20 49.33778 3.19465 7811 ft 294 kts 243°
2026-05-05 14:20 49.32866 3.16613 7811 ft 294 kts 243°
2026-05-05 14:21 49.31963 3.13792 7818 ft 296 kts 243°
2026-05-05 14:21 49.31070 3.11003 7808 ft 295 kts 243°
2026-05-05 14:21 49.30169 3.08194 7804 ft 294 kts 243°
2026-05-05 14:21 49.29263 3.05374 7805 ft 294 kts 243°
2026-05-05 14:22 49.28364 3.02580 7811 ft 295 kts 243°
2026-05-05 14:22 49.27456 2.99760 7810 ft 296 kts 243°
2026-05-05 14:22 49.26555 2.96965 7819 ft 296 kts 243°
2026-05-05 14:22 49.25649 2.94157 7811 ft 295 kts 244°
2026-05-05 14:23 49.24718 2.91275 7810 ft 294 kts 244°
2026-05-05 14:23 49.23810 2.88467 7811 ft 294 kts 244°
2026-05-05 14:23 49.22903 2.85664 7810 ft 295 kts 244°
2026-05-05 14:23 49.21991 2.82850 7815 ft 296 kts 244°
2026-05-05 14:24 49.21077 2.80035 7811 ft 295 kts 244°
2026-05-05 14:24 49.20162 2.77217 7819 ft 295 kts 244°
2026-05-05 14:24 49.19251 2.74413 7823 ft 294 kts 244°
2026-05-05 14:24 49.18340 2.71615 7822 ft 295 kts 244°
2026-05-05 14:25 49.17496 2.68745 7817 ft 296 kts 253°
2026-05-05 14:25 49.17178 2.65664 7827 ft 293 kts 269°
2026-05-05 14:25 49.17147 2.62562 7832 ft 294 kts 271°
2026-05-05 14:25 49.17153 2.59460 7827 ft 292 kts 271°
2026-05-05 14:26 49.17172 2.56352 7831 ft 291 kts 272°
2026-05-05 14:26 49.17179 2.53289 7828 ft 292 kts 271°
2026-05-05 14:26 49.17196 2.50157 7819 ft 293 kts 272°
2026-05-05 14:26 49.17216 2.47072 7823 ft 294 kts 272°
2026-05-05 14:27 49.17238 2.43919 7461 ft 300 kts 271°
2026-05-05 14:27 49.17265 2.40759 7241 ft 293 kts 272°
2026-05-05 14:27 49.17289 2.37690 7098 ft 285 kts 272°
2026-05-05 14:27 49.17313 2.34700 6967 ft 276 kts 271°
2026-05-05 14:28 49.17340 2.31815 6846 ft 268 kts 272°
2026-05-05 14:28 49.17361 2.29048 6652 ft 264 kts 272°
2026-05-05 14:28 49.17380 2.26200 6404 ft 261 kts 271°
2026-05-05 14:28 49.17402 2.23450 6210 ft 257 kts 272°
2026-05-05 14:29 49.17415 2.20719 5889 ft 258 kts 272°
2026-05-05 14:29 49.17407 2.18002 5686 ft 253 kts 272°
2026-05-05 14:29 49.17241 2.15338 5441 ft 252 kts 256°
2026-05-05 14:29 49.16564 2.12911 5212 ft 251 kts 244°
2026-05-05 14:30 49.15719 2.10574 4950 ft 251 kts 242°
2026-05-05 14:30 49.14853 2.08272 4737 ft 249 kts 242°
2026-05-05 14:30 49.13987 2.05992 4556 ft 249 kts 242°
2026-05-05 14:30 49.13120 2.03698 4303 ft 250 kts 242°
2026-05-05 14:31 49.12215 2.01451 4067 ft 249 kts 235°
2026-05-05 14:31 49.10918 1.99785 4016 ft 249 kts 205°
2026-05-05 14:31 49.09286 1.99302 4029 ft 245 kts 173°
2026-05-05 14:31 49.07680 1.99964 4028 ft 239 kts 154°
2026-05-05 14:32 49.06162 2.00991 4022 ft 239 kts 152°
2026-05-05 14:32 49.04647 2.02076 4020 ft 241 kts 152°
2026-05-05 14:32 49.03150 2.03162 4021 ft 241 kts 152°
2026-05-05 14:32 49.01636 2.04265 4019 ft 241 kts 152°
2026-05-05 14:33 49.00140 2.05404 4007 ft 239 kts 146°
2026-05-05 14:33 48.98986 2.07122 4016 ft 232 kts 116°
2026-05-05 14:33 48.98398 2.09354 3993 ft 229 kts 103°
2026-05-05 14:33 48.97955 2.11748 3552 ft 240 kts 102°
2026-05-05 14:34 48.97519 2.14192 3343 ft 237 kts 102°
2026-05-05 14:34 48.97095 2.16586 3204 ft 232 kts 102°
2026-05-05 14:34 48.96677 2.18942 2926 ft 233 kts 102°
2026-05-05 14:34 48.96250 2.21320 2631 ft 232 kts 101°
2026-05-05 14:35 48.96130 2.23696 2377 ft 222 kts 75°
2026-05-05 14:35 48.96678 2.25836 2154 ft 214 kts 59°
2026-05-05 14:35 48.97391 2.27789 2012 ft 211 kts 57°
2026-05-05 14:35 48.98062 2.29733 1994 ft 213 kts 60°
2026-05-05 14:36 48.98708 2.31740 1929 ft 213 kts 61°
2026-05-05 14:36 48.99388 2.33815 1501 ft 221 kts 61°
2026-05-05 14:36 49.00066 2.35894 1274 ft 221 kts 61°
2026-05-05 14:36 49.00647 2.38041 1082 ft 218 kts 70°
2026-05-05 14:37 49.00848 2.40241 1020 ft 200 kts 81°
2026-05-05 14:37 49.01061 2.42189 1012 ft 182 kts 76°
2026-05-05 14:37 49.01279 2.44048 965 ft 171 kts 77°
2026-05-05 14:37 49.01452 2.45784 778 ft 159 kts 79°
2026-05-05 14:38 49.01541 2.47348 659 ft 135 kts 81°
2026-05-05 14:38 49.01667 2.48645 597 ft 112 kts 76°
2026-05-05 14:38 49.01837 2.49413 506 ft 128 kts 69°
2026-05-05 14:38 49.02064 2.51220 377 ft 121 kts 78°
2026-05-05 14:39 49.02130 2.52315 360 ft 80 kts 87°
2026-05-05 14:39 49.02152 2.52754 365 ft 46 kts 87°
2026-05-05 14:39 49.02170 2.53165 362 ft 35 kts 89°
2026-05-05 14:39 49.02140 2.53431 360 ft 21 kts 107°
2026-05-05 14:40 49.02115 2.53561 365 ft 0 kts 106°
2026-05-05 14:41 49.02105 2.53618 362 ft 9 kts 106°
2026-05-05 14:41 49.02085 2.53718 366 ft 11 kts 107°
2026-05-05 14:41 49.02067 2.53814 362 ft 8 kts 104°
2026-05-05 14:41 49.02056 2.53882 361 ft 6 kts 104°
2026-05-05 14:42 49.02046 2.53937 366 ft 5 kts 105°
2026-05-05 14:42 49.02037 2.53989 362 ft 5 kts 105°
2026-05-05 14:42 49.02029 2.54037 366 ft 5 kts 105°
2026-05-05 14:42 49.02020 2.54084 364 ft 4 kts 105°
2026-05-05 14:43 49.02019 2.54092 365 ft 0 kts 105°
2026-05-05 14:45 49.02015 2.54114 365 ft 6 kts 105°
2026-05-05 14:45 49.02006 2.54175 365 ft 6 kts 102°
2026-05-05 14:46 49.01997 2.54235 363 ft 5 kts 104°
2026-05-05 14:46 49.01973 2.54298 367 ft 10 kts 135°
2026-05-05 14:46 49.01906 2.54329 364 ft 10 kts 172°
2026-05-05 14:46 49.01838 2.54322 363 ft 9 kts 182°
2026-05-05 14:47 49.01764 2.54331 356 ft 15 kts 181°
2026-05-05 14:47 49.01683 2.54310 357 ft 5 kts 192°
2026-05-05 14:47 49.01670 2.54306 355 ft 0 kts 192°
2026-05-05 14:47 49.01661 2.54302 356 ft 0 kts 193°